sat.trackr.live / text

‹ back to catalog

O3B FM6

NORAD 40081 · 2014-038C

PAYLOAD ACTIVE UNKNOWN

§ Identity

Operator
Country
O3B
Launch date
2014-07-10
Launch site
FRGUI
Launch vehicle
Mass (kg)
RCS (m²)
12.59

Purposes: comms

External: N2YO · Heavens-Above · Gunter

§ Orbital elements

Epoch: 2026-09-03T10:27:48.284928Z

Period
287.93 min
Inclination
0.0460°
Eccentricity
0.0002579
Mean motion
5.00115740 rev/d
Perigee alt
8,062.2 km
Apogee alt
8,069.6 km
Semi-major
14,444.0 km
B*
0.0000e+0
RAAN
351.0518°
Arg perigee
170.5176°
Mean anomaly
198.4417°
Rev number
22,173

§ Raw data

O3B FM61 40081U 14038C   26246.43597552 -.00000017  00000+0  00000+0 0  99962 40081   0.0460 351.0518 0002579 170.5176 198.4417  5.00115740221730

JSON: /api/v1/satellites/40081 · /tle

For live sub-satellite position, see the globe view (requires WebGL).

§ Visibility from observer

Set your observer location to see the next 7 days of passes ≥ 10°. The values pass through the URL so the page stays shareable.

No JS? Fill the form by hand. The geolocation button needs JavaScript.